FLTSATCOM 7 (USA 20)

导读 | 星芒AI

FLTSATCOM 7(USA-20)是美国海军FLTSATCOM卫星通信系统的一部分,由洛克希德·马丁公司制造,于1994年12月19日发射。该卫星运行在地球同步轨道,主要用于提供安全的战术通信能力,支持美军全球作战需求。FLTSATCOM 7采用改进型设计,具备抗干扰和加密通信功能,增强了通信的可靠性和安全性。该卫星在轨服役多年,为美军各军种提供了关键的指挥、控制和情报传输服务。

基本信息
目录编号:
17181
目录名称:
FLTSATCOM 7 (USA 20)
国际标识:
1986-096A
轨道中心:
EARTH
卫星名称:
FLTSATCOM 7 (USA 20)
卫星全名:
--
卫星状态:
在轨 (已飞行14255 天)
发射日期:
1986-12-05 UTC
国别 :
美国 (US)
星等 :
--
轨道信息
数据来源 国际轨道数据 AOE轨道数据
星历时间 2025-12-14T20:06:24+0800
1天前
查看轨道信息
2025-12-15T03:00:00+0800
23小时前
查看轨道信息
半长轴 42546.39km 42546.361km
偏心率 0.0043254 0.0043104
轨道倾角 12.851° 12.851°
近地点辐角 322.304° 322.421°
升交点赤经 341.244° 341.242°
平近点角 45.272° 147.449°
近地点 35984.224km 35984.834km
远地点 36352.286km 36351.618km
周期 1455.639分钟 1455.638分钟
每日圈数 0.989256 0.989257
详细信息
使用方式:
暂无
2D轨道图
3D轨道图
轨道高度分析图
轨道倾角分析图
轨道综合分析图
查看轨道综合分析图